Location: Baia de Cri?
(46.1667°N, 22.7167°E)
Time: 21:39:42
(UTC+00:00)

RUBIN 8/PSLV - Pass Details

Date: 15 January 2026
Orbit: 593 x 628 km, 98.1° (Epoch: 10 February)

Event Time Altitude Azimuth Distance (km) Brightness Sun altitude
Rises 04:30:17 0° 9° (N) 2,843 7.9 -16.4°
Reaches altitude 10° 04:32:29 10° 6° (N) 1,936 7.0 -16.1°
Maximum altitude 04:36:35 57° 288° (WNW) 705 4.5 -15.4°
Drops below altitude 10° 04:40:41 10° 210° (SSW) 1,927 6.9 -14.7°
Sets 04:42:52 0° 206° (SSW) 2,828 7.8 -14.3°
